User: anonymous   Login
Location: Unspecified
(47.8330°N, 0.0000°E)
Time: 09:43:16
(UTC+00:00)
Language:

PicSat - Orbit

View from above orbital plane
View from above orbital plane
View from above satellite
View from above satellite

Ground track
Ground track

The orbit data is extracted from the following two-line orbital elements,

1 43131U 18004W   19201.19110060  .00001002  00000-0  44078-4 0  9996
2 43131  97.4876 269.2021 0010626 136.1866 224.0216 15.24183252 84319
Epoch (UTC): 20 July 2019 04:35:11
Eccentricity: 0.0010626
inclination: 97.4876°
perigee height: 486 km
apogee height: 500 km
right ascension of ascending node: 269.2021°
argument of perigee: 136.1866°
revolutions per day: 15.24183252
mean anomaly at epoch: 224.0216°
orbit number at epoch: 8431

The dashed part of the orbit path shows where the satellite is in the earth's shadow,  

DLR